This demonstration page uses our WeatherBlox Daily Observations layout. Learn more.

Left ArrowRight Arrow

Hourly Observations for January 23, 2022

Temp ( °F °C ) Dew Point ( °F °C ) Humidity (%) Winds ( mph kmh ) Pressure ( in mb ) Visibility ( mi km ) Precip ( " mm )
12:52 am 00:52 Clear 31 -0.6 16 -8.9 54 54 SW 10 17 30.17 1022 10 16 0.00 0.00
1:52 am 01:52 Clear 29 -1.7 16 -8.9 58 58 SW 8 13 30.15 1021 10 16 0.00 0.00
2:52 am 02:52 Clear 30 -1.1 16 -8.9 56 56 SW 8 13 30.13 1020 10 16 0.00 0.00
3:52 am 03:52 Clear 33 0.6 16 -8.9 49 49 SW 10 17 30.11 1020 10 16 0.00 0.00
4:52 am 04:52 Clear 35 1.7 16 -8.9 46 46 SW 12 19 30.08 1019 10 16 0.00 0.00
5:52 am 05:52 Clear 36 2.2 16 -8.9 44 44 WSW 13 20 30.07 1018 10 16 0.00 0.00
6:52 am 06:52 Clear 36 2.2 16 -8.9 44 44 WSW 13 20 30.09 1019 10 16 0.00 0.00
7:52 am 07:52 Sunny 35 1.7 17 -8.3 48 48 WSW 12 19 30.09 1019 10 16 0.00 0.00
8:52 am 08:52 Sunny 37 2.8 18 -7.8 46 46 W 15 24 30.09 1019 10 16 0.00 0.00
9:52 am 09:52 Sunny 41 5 21 -6.1 45 45 WNW 10 17 30.10 1019 10 16 0.00 0.00
10:52 am 10:52 Mostly Sunny 43 6.1 24 -4.4 47 47 NW 9 15 30.11 1020 10 16 0.00 0.00
11:52 am 11:52 Sunny 46 7.8 26 -3.3 46 46 NW 13 20 30.07 1018 10 16 0.00 0.00
12:52 pm 12:52 Sunny 47 8.3 27 -2.8 46 46 NW 16 26 30.04 1017 10 16 0.00 0.00
1:52 pm 13:52 Sunny 47 8.3 27 -2.8 46 46 WNW 12 19 30.03 1017 10 16 0.00 0.00
2:52 pm 14:52 Sunny 49 9.4 28 -2.2 44 44 NW 12 19 30.01 1016 10 16 0.00 0.00
3:52 pm 15:52 Sunny 48 8.9 26 -3.3 42 42 WNW 10 17 30.01 1016 10 16 0.00 0.00
4:52 pm 16:52 Sunny 45 7.2 26 -3.3 48 48 NW 10 17 30.02 1017 10 16 0.00 0.00
5:52 pm 17:52 Clear 40 4.4 25 -3.9 55 55 NNW 5 7 30.02 1017 10 16 0.00 0.00
6:52 pm 18:52 Clear 34 1.1 23 -5 64 64 Calm 30.01 1016 10 16 0.00 0.00
7:52 pm 19:52 Clear 32 0 23 -5 69 69 Calm 30.01 1016 10 16 0.00 0.00
8:52 pm 20:52 Clear 29 -1.7 23 -5 78 78 SE 7 11 29.98 1015 10 16 0.00 0.00
9:52 pm 21:52 Clear 30 -1.1 24 -4.4 79 79 S 5 7 29.95 1014 10 16 0.00 0.00
10:52 pm 22:52 Mostly Cloudy 33 0.6 26 -3.3 75 75 S 6 9 29.93 1014 10 16 0.00 0.00
11:52 pm 23:52 Cloudy 36 2.2 28 -2.2 73 73 S 10 17 29.91 1013 10 16 0.00 0.00

Powered by AerisWeather